Cloud_Cover
0 0 0 6 14 94 12 40 5 5 54 37 12 29 13 6 4 1 96 56 96 3 0 0 0 0 0 0 0 0 0 0 5 5 70 44 99 100 100 100 100 100 98 100 100
0 0 1 5 27 100 47 28 5 92 4 24 15 25 3 2 17 6 50 47 96 44 0 0 0 0 0 0 0 0 0 0 1 5 5 5 67 90 100 100 100 100 100 100 100
0 0 5 5 67 64 99 98 100 74 5 31 32 64 16 5 80 42 97 92 93 5 0 0 0 0 0 0 0 0 0 0 0 2 5 45 98 4 7 100 100 86 99 72 100
98 43 5 13 95 53 100 100 100 100 100 100 91 100 70 95 4 0 94 100 63 5 0 0 0 0 0 0 0 0 0 0 0 0 0 25 100 98 24 99 100 5 51 100 100
83 8 7 92 82 96 99 87 100 100 100 100 100 100 100 84 3 0 65 100 79 1 0 0 0 0 0 0 0 0 0 0 5 0 0 0 16 99 28 18 69 86 97 100 100
7 2 4 74 100 70 99 68 100 100 100 100 100 100 100 100 4 2 100 36 96 0 0 0 0 0 0 0 0 0 0 0 2 0 0 0 0 5 98 24 100 100 100 100 100
0 0 0 0 24 100 58 100 98 95 100 100 100 100 100 99 100 98 100 43 37 0 0 4 0 0 0 0 0 0 0 0 0 0 0 0 0 2 95 94 46 99 100 100 100
0 0 0 1 5 25 100 100 99 81 74 98 100 100 100 100 95 97 100 97 92 2 5 5 0 0 0 0 0 0 0 0 0 0 0 0 0 0 0 19 97 20 5 20 80
0 0 0 1 3 0 81 73 5 16 10 100 100 100 100 100 100 65 73 43 80 59 14 5 0 0 0 0 0 0 0 0 0 0 0 0 0 0 0 3 4 63 89 37 5
0 0 0 3 4 40 5 5 6 83 32 97 99 100 100 100 100 100 100 77 100 97 39 74 5 0 0 0 0 0 0 0 0 0 0 0 0 0 0 0 0 0 2 6 5
0 0 0 0 1 5 5 51 83 79 98 6 100 100 100 100 100 100 100 89 87 32 94 100 58 0 0 0 0 0 0 0 0 0 0 0 0 0 0 0 0 0 0 0 1
0 0 0 0 0 5 25 96 20 78 30 6 97 100 100 100 100 100 100 96 77 59 100 100 100 3 0 0 0 0 0 0 0 0 0 0 0 0 0 0 0 0 0 0 0
4 0 0 0 0 0 15 21 5 14 46 80 78 100 100 100 100 100 100 100 4 6 100 100 100 29 4 0 0 0 0 0 0 0 0 0 0 0 0 0 0 0 0 0 0
83 4 0 0 0 0 0 5 11 4 3 15 99 100 100 100 100 100 100 100 4 92 100 100 100 98 4 0 0 0 0 0 0 2 0 0 0 0 0 0 0 0 0 0 0
6 11 2 0 0 0 0 0 0 0 3 8 100 80 97 100 99 100 48 98 100 100 100 100 100 100 10 1 0 0 0 0 5 5 5 1 0 0 0 0 0 0 0 0 0
5 11 5 1 3 0 0 0 0 3 1 4 23 90 100 80 84 48 20 42 43 30 100 100 100 100 50 5 2 0 0 0 5 5 5 1 0 5 2 0 0 0 0 0 0
97 17 52 4 5 4 0 0 2 4 0 0 2 4 5 78 87 13 2 5 0 4 18 88 100 100 99 29 5 1 0 4 15 31 5 5 5 5 5 4 0 0 0 0 0
92 100 100 5 34 29 5 1 0 0 0 0 0 0 0 5 5 13 5 0 0 0 2 8 21 28 6 7 9 5 1 0 0 5 4 5 4 3 0 0 0 0 0 0 0
5 89 80 85 5 36 62 80 7 0 0 0 0 0 0 0 0 0 1 0 0 0 0 0 0 0 0 0 0 0 0 0 3 5 5 10 0 0 0 0 0 0 0 0 0
5 27 6 87 68 50 59 77 99 34 1 0 0 0 0 0 0 0 0 0 0 0 0 0 0 0 0 0 0 0 0 0 4 0 2 4 1 1 0 0 0 0 0 0 0
55 5 5 6 98 100 93 77 100 100 92 70 2 0 0 0 0 0 0 0 0 0 0 0 0 0 0 0 0 0 0 0 1 4 0 1 0 0 0 0 0 0 0 0 0
5 5 5 0 1 6 98 100 90 74 94 100 100 76 2 0 0 0 0 0 0 0 0 0 0 2 0 0 0 0 0 0 0 0 2 1 1 0 0 0 0 0 0 0 0
89 63 5 4 5 6 25 58 100 100 100 100 97 96 100 100 42 0 3 2 0 0 0 0 0 0 0 1 0 0 0 0 0 0 0 5 0 0 0 0 0 0 0 0 0
100 100 86 100 31 5 58 52 48 76 100 99 100 98 97 100 100 100 94 13 4 1 0 0 0 0 0 0 0 0 0 0 0 1 0 1 0 0 0 0 0 0 0 0 0
100 100 100 100 86 98 47 5 50 14 8 7 38 100 100 100 100 92 100 100 68 11 5 3 2 0 0 3 0 0 0 0 2 0 0 2 0 0 0 0 0 0 0 0 0
100 100 6 5 100 98 61 85 100 100 75 86 100 96 100 100 100 100 100 100 79 98 100 88 34 5 5 0 1 5 5 0 2 0 0 4 0 3 2 0 2 0 0 0 0
100 87 4 0 2 6 100 100 100 100 100 100 100 100 100 100 100 34 25 96 100 100 100 100 100 85 82 76 34 16 18 8 5 12 12 2 3 0 0 0 0 2 0 0 0